This is the latest recevied weather packets stored in our database for station/object WA1TYB-13. If no packets are shown the sender has not sent any weather packets the latest 10 day(s).
| Time | Temp. | Humidity | Pressure | Rain* | Wind** | Luminosity | Snow |
|---|---|---|---|---|---|---|---|
| 1787875563 | 31.67° C | 12% | 1013.5 hPa | 0 mm | - | 175 W/m² | - |
| 1787875257 | 31.67° C | 13% | 1013.6 hPa | 0 mm | - | 238 W/m² | - |
| 1787874955 | 31.67° C | 13% | 1013.8 hPa | 0 mm | - | 292 W/m² | - |
| 1787874651 | 31.67° C | 12% | 1013.5 hPa | 0 mm | - | 165 W/m² | - |
| 1787874349 | 32.22° C | 12% | 1013.5 hPa | 0 mm | - | 255 W/m² | - |
| 1787874044 | 31.67° C | 12% | 1013.5 hPa | 0 mm | - | 233 W/m² | - |
| 1787873744 | 32.78° C | 13% | 1013.8 hPa | 0 mm | - | 149 W/m² | - |
| 1787873438 | 32.78° C | 12% | 1013.8 hPa | 0 mm | - | 264 W/m² | - |
| 1787873133 | 33.33° C | 13% | 1014.1 hPa | 0 mm | - | 312 W/m² | - |
| 1787872833 | 32.78° C | 14% | 1014.2 hPa | 0 mm | - | 364 W/m² | - |
| 1787872529 | 33.33° C | 12% | 1014.1 hPa | 0 mm | - | 396 W/m² | - |
| 1787872236 | 32.78° C | 13% | 1014.3 hPa | 0 mm | - | 409 W/m² | - |
| 1787871928 | 32.78° C | 13% | 1014.4 hPa | 0 mm | - | 426 W/m² | - |
| 1787871624 | 32.78° C | 14% | 1014.4 hPa | 0 mm | - | 518 W/m² | - |
| 1787871319 | 31.67° C | 14% | 1014.4 hPa | 0 mm | - | 396 W/m² | - |
| 1787871014 | 31.67° C | 14% | 1014.4 hPa | 0 mm | - | 111 W/m² | - |
| 1787870714 | 31.67° C | 14% | 1014.5 hPa | 0 mm | - | 96 W/m² | - |
| 1787870409 | 32.22° C | 14% | 1014.1 hPa | 0 mm | - | 92 W/m² | - |
| 1787870104 | 32.22° C | 13% | 1014.1 hPa | 0 mm | - | 124 W/m² | - |
| 1787869803 | 32.78° C | 13% | 1014.4 hPa | 0 mm | - | 167 W/m² | - |
| 1787869498 | 33.33° C | 12% | 1014.2 hPa | 0 mm | - | 342 W/m² | - |
| 1787869196 | 32.78° C | 13% | 1014.2 hPa | 0 mm | - | 333 W/m² | - |
| 1787868891 | 32.78° C | 14% | 1014.5 hPa | 0 mm | - | 239 W/m² | - |
| 1787868590 | 32.78° C | 14% | 1014.7 hPa | 0 mm | - | 421 W/m² | - |
| 1787868289 | 32.22° C | 14% | 1015 hPa | 0 mm | - | 304 W/m² | - |
* Rain latest hour (hover to see other rain measurements)
** Current wind speed in m/s (hover to see current wind gust speed)